Port Huron, MI

5:55 PM EDT on August 18, 2019 (GMT -0400)
Saint Clair County International

Weather History for KPHN - June, 2019

Change the Weather History Date:

Monday, June 10, 2019

  Actual Average (WUND) Record (WUND)
Temperature  
Mean Temperature 62 °F -  
Max Temperature 73 °F - - (-1)
Min Temperature 51 °F - - (-1)
Degree Days  
Heating Degree Days 3    
Growing Degree Days 12 (Base 50)    
Moisture  
Dew Point 58 °F    
Average Humidity 76    
Maximum Humidity 88    
Minimum Humidity 56    
Precipitation  
Precipitation 0.00 in - - ()
Sea Level Pressure  
Sea Level Pressure 29.92 in    
Wind  
Wind Speed 8 mph (SSW)    
Max Wind Speed 21 mph    
Max Gust Speed 30 mph    
Visibility 9 miles    
Events Rain    
Averages and records for this station are not official NWS values.
T = Trace of Precipitation, MM = Missing Value Source: NWS Daily Summary

Daily Weather History Graph

Daily Weather History Graph

Search for Another Location

Airport or City:

Astronomy

Jun. 10, 2019 Rise Set
Actual Time 5:51 AM EDT 9:08 PM EDT
Civil Twilight 5:16 AM EDT 9:43 PM EDT
Nautical Twilight 4:30 AM EDT 10:28 PM EDT
Astronomical Twilight 3:35 AM EDT 11:24 PM EDT
Moon 1:45 PM EDT (6/10) 2:15 AM EDT (6/10)
Length of Visible Light 16h 27m
Length of Day
15h 17m
First Quarter, 55% of the Moon is Illuminated
Jun 10
First Quarter
Jun 17
Full
Jun 25
Last Quarter
Jul 2
New
Jul 9
First Quarter

Hourly Weather History & Observations

Time (EDT) Temp. Dew Point Humidity Pressure Visibility Wind Dir Wind Speed Gust Speed Precip Events Conditions
12:16 AM 73.4 °F 59.0 °F 61% 29.97 in 10.0 mi SE 9.2 mph - N/A   Mostly Cloudy
12:35 AM 73.4 °F 59.0 °F 61% 29.97 in 10.0 mi SSE 6.9 mph - N/A   Scattered Clouds
12:55 AM 73.4 °F 59.0 °F 61% 29.96 in 10.0 mi SSE 5.8 mph - N/A   Mostly Cloudy
1:19 AM 73.4 °F 59.0 °F 61% 29.96 in 10.0 mi SSE 5.8 mph - N/A   Overcast
1:37 AM 71.6 °F 59.0 °F 64% 29.96 in 10.0 mi SSE 6.9 mph - N/A   Mostly Cloudy
1:55 AM 71.6 °F 59.0 °F 64% 29.95 in 10.0 mi SSE 6.9 mph - N/A   Mostly Cloudy
2:15 AM 71.6 °F 59.0 °F 64% 29.95 in 10.0 mi SSE 11.5 mph 16.1 mph N/A   Mostly Cloudy
2:35 AM 69.8 °F 60.8 °F 73% 29.95 in 10.0 mi South 10.4 mph - N/A Rain Rain
2:40 AM 68.0 °F 60.8 °F 78% 29.94 in 10.0 mi South 9.2 mph - N/A Rain Rain
2:58 AM 68.0 °F 60.8 °F 78% 29.94 in 10.0 mi South 6.9 mph - N/A Rain Light Rain
3:16 AM 68.0 °F 60.8 °F 78% 29.94 in 10.0 mi SSE 4.6 mph - N/A Rain Rain
3:35 AM 68.0 °F 62.6 °F 83% 29.93 in 10.0 mi SSE 5.8 mph - N/A   Light Drizzle
3:36 AM 68.0 °F 62.6 °F 83% 29.93 in 10.0 mi SSE 4.6 mph - N/A   Light Drizzle
3:55 AM 68.0 °F 60.8 °F 78% 29.92 in 10.0 mi SSE 3.5 mph - N/A   Overcast
4:19 AM 68.0 °F 62.6 °F 83% 29.91 in 10.0 mi SSE 4.6 mph - N/A   Light Drizzle
4:37 AM 68.0 °F 62.6 °F 83% 29.91 in 10.0 mi SSE 3.5 mph - N/A Rain Light Rain
4:55 AM 66.2 °F 62.6 °F 88% 29.90 in 10.0 mi SSE 6.9 mph - N/A   Overcast
5:15 AM 66.2 °F 60.8 °F 83% 29.89 in 10.0 mi SE 6.9 mph - N/A Rain Light Rain
5:16 AM 66.2 °F 60.8 °F 83% 29.90 in 10.0 mi SE 8.1 mph - N/A Rain Light Rain
5:35 AM 66.2 °F 60.8 °F 83% 29.89 in 10.0 mi SSE 8.1 mph - N/A   Light Drizzle
5:40 AM 66.2 °F 60.8 °F 83% 29.89 in 10.0 mi SSE 4.6 mph - N/A   Overcast
5:58 AM 66.2 °F 60.8 °F 83% 29.89 in 10.0 mi SSE 4.6 mph - N/A   Overcast
6:16 AM 66.2 °F 60.8 °F 83% 29.89 in 10.0 mi SSE 10.4 mph - N/A   Overcast
6:35 AM 66.2 °F 60.8 °F 83% 29.89 in 7.0 mi SSE 5.8 mph - N/A Rain Rain
6:36 AM 66.2 °F 60.8 °F 83% 29.89 in 7.0 mi SSE 6.9 mph - N/A Rain Light Rain
6:55 AM 66.2 °F 62.6 °F 88% 29.89 in 10.0 mi SSE 4.6 mph - N/A   Overcast
7:19 AM 66.2 °F 62.6 °F 88% 29.88 in 10.0 mi SSE 8.1 mph - N/A   Overcast
7:37 AM 66.2 °F 62.6 °F 88% 29.88 in 10.0 mi SSE 9.2 mph - N/A   Overcast
7:55 AM 66.2 °F 62.6 °F 88% 29.88 in 10.0 mi SSE 8.1 mph - N/A   Overcast
8:15 AM 66.2 °F 62.6 °F 88% 29.87 in 7.0 mi SSE 6.9 mph - N/A   Light Drizzle
8:16 AM 66.2 °F 62.6 °F 88% 29.87 in 10.0 mi SSE 6.9 mph - N/A   Light Drizzle
8:35 AM 66.2 °F 62.6 °F 88% 29.87 in 5.0 mi South 5.8 mph - N/A Rain Heavy Rain
8:58 AM 66.2 °F 62.6 °F 88% 29.86 in 7.0 mi SSE 4.6 mph - N/A Rain Rain
9:16 AM 66.2 °F 62.6 °F 88% 29.86 in 10.0 mi South 6.9 mph - N/A   Overcast
9:36 AM 68.0 °F 62.6 °F 83% 29.85 in 10.0 mi South 8.1 mph - N/A   Overcast
9:55 AM 68.0 °F 62.6 °F 83% 29.84 in 7.0 mi SSE 8.1 mph - N/A Rain Rain
9:56 AM 68.0 °F 62.6 °F 83% 29.84 in 7.0 mi South 6.9 mph - N/A Rain Rain
10:19 AM 68.0 °F 62.6 °F 83% 29.84 in 10.0 mi South 8.1 mph - N/A   Overcast
10:37 AM 68.0 °F 62.6 °F 83% 29.83 in 5.0 mi South 6.9 mph - N/A Rain Light Rain
10:55 AM 68.0 °F 62.6 °F 83% 29.83 in 4.0 mi South 10.4 mph - N/A Rain Light Rain
10:56 AM 68.0 °F 62.6 °F 83% 29.83 in 4.0 mi South 10.4 mph - N/A Rain Light Rain
11:15 AM 68.0 °F 64.4 °F 88% 29.82 in 10.0 mi South 8.1 mph - N/A Rain Rain
11:35 AM 68.0 °F 64.4 °F 88% 29.82 in 7.0 mi South 8.1 mph - N/A Rain Rain
11:58 AM 68.0 °F 64.4 °F 88% 29.82 in 10.0 mi SSW 6.9 mph - N/A   Drizzle
12:16 PM 68.0 °F 64.4 °F 88% 29.82 in 10.0 mi SW 5.8 mph - N/A Rain Rain
12:35 PM 68.0 °F 64.4 °F 88% 29.82 in 7.0 mi WSW 4.6 mph - N/A Rain Rain
12:55 PM 68.0 °F 62.6 °F 83% 29.84 in 10.0 mi West 6.9 mph 18.4 mph N/A Rain Rain
1:19 PM 68.0 °F 62.6 °F 83% 29.84 in 5.0 mi WNW 6.9 mph - N/A   Drizzle
1:37 PM 68.0 °F 62.6 °F 83% 29.84 in 10.0 mi WNW 10.4 mph 17.3 mph N/A   Overcast
1:55 PM 69.8 °F 62.6 °F 78% 29.84 in 10.0 mi NW 10.4 mph 16.1 mph N/A   Overcast
1:56 PM 69.8 °F 62.6 °F 78% 29.84 in 10.0 mi NW 10.4 mph 16.1 mph N/A   Overcast
2:15 PM 68.0 °F 60.8 °F 78% 29.86 in 10.0 mi WNW 12.7 mph 19.6 mph N/A   Overcast
2:35 PM 68.0 °F 60.8 °F 78% 29.86 in 10.0 mi NW 16.1 mph 21.9 mph N/A   Overcast
2:40 PM 66.2 °F 60.8 °F 83% 29.86 in 10.0 mi NW 12.7 mph 21.9 mph N/A   Overcast
2:58 PM 68.0 °F 60.8 °F 78% 29.86 in 10.0 mi WNW 10.4 mph 19.6 mph N/A   Overcast
3:16 PM 68.0 °F 60.8 °F 78% 29.88 in 10.0 mi NW 15.0 mph 18.4 mph N/A   Overcast
3:35 PM 66.2 °F 59.0 °F 78% 29.89 in 10.0 mi NW 9.2 mph 18.4 mph N/A   Overcast
3:55 PM 64.4 °F 57.2 °F 77% 29.90 in 10.0 mi WNW 16.1 mph 23.0 mph N/A   Overcast
3:56 PM 64.4 °F 57.2 °F 77% 29.90 in 10.0 mi NW 18.4 mph 23.0 mph N/A   Overcast
4:19 PM 64.4 °F 55.4 °F 73% 29.91 in 10.0 mi NW 15.0 mph 23.0 mph N/A   Overcast
4:37 PM 64.4 °F 55.4 °F 73% 29.92 in 10.0 mi WNW 13.8 mph 21.9 mph N/A   Overcast
4:55 PM 66.2 °F 53.6 °F 64% 29.92 in 10.0 mi NNW 12.7 mph 26.5 mph N/A   Overcast
5:15 PM 64.4 °F 53.6 °F 68% 29.93 in 10.0 mi NW 15.0 mph 24.2 mph N/A   Overcast
5:16 PM 64.4 °F 53.6 °F 68% 29.93 in 10.0 mi NW 13.8 mph 24.2 mph N/A   Overcast
5:35 PM 66.2 °F 53.6 °F 64% 29.94 in 10.0 mi NW 11.5 mph 21.9 mph N/A   Overcast
5:58 PM 64.4 °F 51.8 °F 64% 29.95 in 10.0 mi NW 18.4 mph 29.9 mph N/A   Overcast
6:16 PM 64.4 °F 51.8 °F 64% 29.95 in 10.0 mi NW 12.7 mph 27.6 mph N/A   Overcast
6:35 PM 64.4 °F 51.8 °F 64% 29.96 in 10.0 mi WNW 20.7 mph 25.3 mph N/A   Overcast
6:36 PM 64.4 °F 51.8 °F 64% 29.96 in 10.0 mi WNW 17.3 mph 25.3 mph N/A   Overcast
6:55 PM 64.4 °F 51.8 °F 64% 29.97 in 10.0 mi NW 9.2 mph 23.0 mph N/A   Overcast
7:19 PM 64.4 °F 50.0 °F 59% 29.98 in 10.0 mi WNW 15.0 mph 24.2 mph N/A   Overcast
7:37 PM 64.4 °F 48.2 °F 56% 29.99 in 10.0 mi NW 12.7 mph 24.2 mph N/A   Mostly Cloudy
7:55 PM 64.4 °F 48.2 °F 56% 29.99 in 10.0 mi NW 10.4 mph 24.2 mph N/A   Scattered Clouds
7:56 PM 64.4 °F 48.2 °F 56% 29.99 in 10.0 mi NW 9.2 mph 24.2 mph N/A   Scattered Clouds
8:15 PM 62.6 °F 48.2 °F 59% 30.01 in 10.0 mi NW 13.8 mph 21.9 mph N/A   Scattered Clouds
8:35 PM 62.6 °F 48.2 °F 59% 30.02 in 10.0 mi NW 10.4 mph 17.3 mph N/A   Clear
8:58 PM 60.8 °F 46.4 °F 59% 30.02 in 10.0 mi WNW 4.6 mph - N/A   Clear
9:16 PM 60.8 °F 48.2 °F 63% 30.03 in 10.0 mi Calm Calm - N/A   Clear
9:35 PM 59.0 °F 48.2 °F 67% 30.04 in 10.0 mi Calm Calm - N/A   Clear
9:55 PM 57.2 °F 48.2 °F 72% 30.04 in 10.0 mi Calm Calm - N/A   Clear
9:56 PM 57.2 °F 48.2 °F 72% 30.04 in 10.0 mi Calm Calm - N/A   Clear
10:19 PM 57.2 °F 48.2 °F 72% 30.05 in 10.0 mi Calm Calm - N/A   Clear
10:37 PM 57.2 °F 48.2 °F 72% 30.06 in 10.0 mi Calm Calm - N/A   Clear
10:55 PM 53.6 °F 48.2 °F 82% 30.07 in 10.0 mi Calm Calm - N/A   Clear
10:56 PM 53.6 °F 48.2 °F 82% 30.07 in 10.0 mi Calm Calm - N/A   Clear
11:15 PM 51.8 °F 46.4 °F 82% 30.07 in 10.0 mi Calm Calm - N/A   Clear
11:35 PM 53.6 °F 48.2 °F 82% 30.07 in 10.0 mi Calm Calm - N/A   Clear
11:58 PM 55.4 °F 44.6 °F 67% 30.08 in 10.0 mi Calm Calm - N/A   Clear